23 maja 2022

Czas Kod Pogoda Temp. Widoczność Chmury Wiatr METAR/SPECI
10:00
M
17 °C 10 km+ 1.300 ft 290°   290° 10 kt METAR LFCK 230800Z AUTO 29010KT 9999 BKN013 OVC018 17/14 Q1012 BECMG BKN030
09:30
M
17 °C 10 km+ 1.400 ft 280°   280° 12 kt METAR LFCK 230730Z AUTO 28012KT 9999 OVC014 17/14 Q1011 BECMG BKN030
09:00
M
18 °C 10 km+ 1.300 ft 280°   280° 10 kt METAR LFCK 230700Z AUTO 28010KT 9999 BKN013 OVC019 18/15 Q1011 BECMG OVC017
08:30
M
18 °C 10 km+ 1.300 ft 270°   270° 10 kt METAR LFCK 230630Z AUTO 27010KT 9999 BKN013 OVC018 18/15 Q1011 BECMG OVC017
08:00
M
18 °C 10 km+ 1.300 ft 270°   270° 11 kt METAR LFCK 230600Z AUTO 27011KT 9999 OVC013 18/15 Q1011 BECMG OVC017
07:30
M
18 °C 10 km+ 1.600 ft 270°   270° 12 kt METAR LFCK 230530Z AUTO 27012KT 9999 OVC016 18/15 Q1011
07:00
M
19 °C 10 km+ 2.000 ft 280°   280° 9 kt METAR LFCK 230500Z AUTO 28009KT 9999 FEW013 OVC020 19/16 Q1011
06:30
M
19 °C 10 km+ 2.000 ft 280°   280° 8 kt METAR LFCK 230430Z AUTO 28008KT 9999 OVC020 19/15 Q1010
06:00
M
19 °C 10 km+ 2.100 ft 270°   270° 6 kt METAR LFCK 230400Z AUTO 27006KT 9999 OVC021 19/15 Q1010
05:30
M
19 °C 10 km+ 1.900 ft 280°   280° 7 kt METAR LFCK 230330Z AUTO 28007KT 9999 OVC019 19/15 Q1010
05:00
M
19 °C 10 km+ 1.900 ft 270°   270° 6 kt METAR LFCK 230300Z AUTO 27006KT 9999 OVC019 19/16 Q1011
04:30
M
19 °C 10 km+ 1.800 ft 270°   270° 9 kt METAR LFCK 230230Z AUTO 27009KT 9999 OVC018 19/16 Q1011
04:00
M
20 °C 10 km+ 2.000 ft 270°   270° 9 kt METAR LFCK 230200Z AUTO 27009KT 9999 BKN020 OVC047 20/15 Q1011
03:30
V
20 °C 10 km+ 3.700 ft 260°   260° 12 kt METAR LFCK 230130Z AUTO 26012KT 9999 FEW030 BKN037 OVC043 20/15 Q1011
03:00
V
21 °C 10 km+ 3.500 ft 280°   280° 14 kt METAR LFCK 230100Z AUTO 28014KT 9999 FEW029 BKN035 BKN045 21/16 Q1010
02:30
V
22 °C 10 km+ - 300°   300° 5 kt METAR LFCK 230030Z AUTO 30005KT CAVOK 22/18 Q1010
02:00
V
21 °C 10 km+ - Var   Var 1 kt METAR LFCK 230000Z AUTO VRB01KT CAVOK 21/17 Q1009
01:30
V
22 °C 10 km+ - 130°   130° 6 kt METAR LFCK 222330Z AUTO 13006KT CAVOK 22/18 Q1009
01:00
V
23 °C 10 km+ - 050°   050° 6 kt METAR LFCK 222300Z AUTO 05006KT CAVOK 23/17 Q1009
00:30
V
24 °C 10 km+ - 270°   270° 7 kt METAR LFCK 222230Z AUTO 27007KT 250V350 CAVOK 24/17 Q1010
00:00
V
24 °C 10 km+ - Var   Var 2 kt METAR LFCK 222200Z AUTO VRB02KT CAVOK 24/18 Q1010

22 maja 2022

Czas Kod Pogoda Temp. Widoczność Chmury Wiatr METAR/SPECI
23:30
V
25 °C 10 km+ - Var   Var 10 kt METAR LFCK 222130Z AUTO VRB10KT CAVOK 25/18 Q1009
23:00
V
26 °C 10 km+ - 120°   120° 16 kt METAR LFCK 222100Z AUTO 12016KT CAVOK 26/18 Q1007 TEMPO 32020G35KT 4000 TSRA SCT050CB
22:30
V
26 °C 10 km+ - 130°   130° 16 kt METAR LFCK 222030Z AUTO 13016KT CAVOK 26/17 Q1008 TEMPO 32020G35KT 4000 TSRA SCT050CB
22:00
V
26 °C 10 km+ - 130°   130° 16 kt METAR LFCK 222000Z AUTO 13016KT CAVOK 26/18 Q1008 NOSIG
21:30
V
26 °C 10 km+ - 140°   140° 5 kt METAR LFCK 221930Z AUTO 14005KT CAVOK 26/18 Q1008 NOSIG
21:00
V
27 °C 10 km+ - 110°   110° 5 kt METAR LFCK 221900Z AUTO 11005KT 040V140 CAVOK 27/19 Q1008 NOSIG
20:30
V
27 °C 10 km+ - 130°   130° 7 kt METAR LFCK 221830Z AUTO 13007KT CAVOK 27/20 Q1008 NOSIG
20:00
V
29 °C 10 km+ - 130°   130° 5 kt METAR LFCK 221800Z AUTO 13005KT 090V220 CAVOK 29/19 Q1008 NOSIG
19:30
V
29 °C 10 km+ - 130°   130° 10 kt METAR LFCK 221730Z AUTO 13010KT 9999 ///TCU 29/19 Q1008 BECMG NSC
19:00
V
30 °C 10 km+ - 120°   120° 10 kt METAR LFCK 221700Z AUTO 12010KT 090V150 CAVOK 30/19 Q1008 NOSIG
18:30
V
30 °C 10 km+ - Var   Var 3 kt METAR LFCK 221630Z AUTO VRB03KT CAVOK 30/20 Q1009 NOSIG
18:00
V
30 °C 10 km+ - 270°   270° 4 kt METAR LFCK 221600Z AUTO 27004KT CAVOK 30/19 Q1009 BECMG 13012KT
17:30
V
31 °C 10 km+ - 260°   260° 6 kt METAR LFCK 221530Z AUTO 26006KT 230V300 CAVOK 31/18 Q1009 BECMG 13012KT
17:00
V
33 °C 10 km+ - 140°   140° 7 kt METAR LFCK 221500Z AUTO 14007KT 110V180 CAVOK 33/17 Q1009 NOSIG
16:30
V
33 °C 10 km+ - 130°   130° 11 kt METAR LFCK 221430Z AUTO 13011KT CAVOK 33/18 Q1009 NOSIG
16:00
V
33 °C 10 km+ - 130°   130° 13 kt METAR LFCK 221400Z AUTO 13013KT CAVOK 33/18 Q1009 NOSIG
15:30
V
32 °C 10 km+ - 120°   120° 15 kt METAR LFCK 221330Z AUTO 12015KT CAVOK 32/17 Q1009 NOSIG
15:00
V
33 °C 10 km+ - 130°   130° 11 kt METAR LFCK 221300Z AUTO 13011KT 090V150 CAVOK 33/17 Q1010 NOSIG
14:30
V
34 °C 10 km+ - 110°   110° 10 kt METAR LFCK 221230Z AUTO 11010KT 070V160 CAVOK 34/16 Q1010 NOSIG
14:00
V
32 °C 10 km+ - 160°   160° 6 kt METAR LFCK 221200Z AUTO 16006KT 110V200 CAVOK 32/15 Q1011 NOSIG
13:30
V
31 °C 10 km+ - 160°   160° 5 kt METAR LFCK 221130Z AUTO 16005KT 100V200 CAVOK 31/14 Q1011 NOSIG
13:00
V
30 °C 10 km+ - 120°   120° 4 kt METAR LFCK 221100Z AUTO 12004KT 050V170 CAVOK 30/13 Q1012 NOSIG
12:30
V
30 °C 10 km+ - Var   Var 3 kt METAR LFCK 221030Z AUTO VRB03KT CAVOK 30/16 Q1012 NOSIG
12:00
V
29 °C 10 km+ - Var   Var 3 kt METAR LFCK 221000Z AUTO VRB03KT CAVOK 29/16 Q1012 NOSIG
11:30
V
27 °C 10 km+ - 230°   230° 4 kt METAR LFCK 220930Z AUTO 23004KT 150V280 CAVOK 27/17 Q1013 NOSIG
11:00
V
27 °C 10 km+ - 200°   200° 5 kt METAR LFCK 220900Z AUTO 20005KT 140V240 CAVOK 27/15 Q1013 NOSIG
10:30
V
25 °C 10 km+ - 250°   250° 3 kt METAR LFCK 220830Z AUTO 25003KT 180V330 CAVOK 25/17 Q1013 NOSIG
10:00
V
24 °C 10 km+ - Var   Var 1 kt METAR LFCK 220800Z AUTO VRB01KT CAVOK 24/17 Q1013 NOSIG
09:30
V
23 °C 10 km+ - 250°   250° 3 kt METAR LFCK 220730Z AUTO 25003KT 200V290 CAVOK 23/17 Q1014 NOSIG
09:00
V
23 °C 10 km+ - 120°   120° 3 kt METAR LFCK 220700Z AUTO 12003KT 070V160 CAVOK 23/17 Q1014 NOSIG
08:30
V
21 °C 10 km+ - 110°   110° 7 kt METAR LFCK 220630Z AUTO 11007KT CAVOK 21/17 Q1014 NOSIG
08:00
V
18 °C 10 km+ - 110°   110° 3 kt METAR LFCK 220600Z AUTO 11003KT CAVOK 18/16 Q1015 NOSIG
07:30
V
17 °C 10 km+ - 040°   040° 4 kt METAR LFCK 220530Z AUTO 04004KT CAVOK 17/16 Q1015
07:00
V
17 °C 10 km+ - 260°   260° 3 kt METAR LFCK 220500Z AUTO 26003KT CAVOK 17/16 Q1014
06:30
V
17 °C 10 km+ - 290°   290° 8 kt METAR LFCK 220430Z AUTO 29008KT CAVOK 17/15 Q1014
06:00
V
16 °C 10 km+ - 300°   300° 3 kt METAR LFCK 220400Z AUTO 30003KT CAVOK 16/14 Q1013
05:30
V
16 °C 10 km+ - 010°   010° 3 kt METAR LFCK 220330Z AUTO 01003KT 310V040 CAVOK 16/13 Q1013
05:00
V
17 °C 10 km+ - 110°   110° 5 kt METAR LFCK 220300Z AUTO 11005KT 060V150 CAVOK 17/13 Q1013
04:30
V
17 °C 10 km+ - Var   Var 2 kt METAR LFCK 220230Z AUTO VRB02KT CAVOK 17/14 Q1014
04:00
V
17 °C 10 km+ - 060°   060° 4 kt METAR LFCK 220200Z AUTO 06004KT CAVOK 17/14 Q1014
03:30
V
18 °C 10 km+ - Var   Var 2 kt METAR LFCK 220130Z AUTO VRB02KT CAVOK 18/15 Q1014
03:00
V
19 °C 10 km+ - Var   Var 3 kt METAR LFCK 220100Z AUTO VRB03KT CAVOK 19/16 Q1014
02:30
V
19 °C 10 km+ - 040°   040° 2 kt METAR LFCK 220030Z AUTO 04002KT CAVOK 19/16 Q1014
02:00
V
20 °C 10 km+ - 090°   090° 3 kt METAR LFCK 220000Z AUTO 09003KT 040V140 CAVOK 20/16 Q1015
01:30
V
21 °C 10 km+ - 160°   160° 9 kt METAR LFCK 212330Z AUTO 16009KT CAVOK 21/17 Q1015
01:00
V
21 °C 10 km+ - 150°   150° 6 kt METAR LFCK 212300Z AUTO 15006KT CAVOK 21/17 Q1015
00:30
V
22 °C 10 km+ - 120°   120° 5 kt METAR LFCK 212230Z AUTO 12005KT CAVOK 22/17 Q1016
00:00
V
22 °C 10 km+ - 130°   130° 5 kt METAR LFCK 212200Z AUTO 13005KT CAVOK 22/18 Q1016

21 maja 2022

Czas Kod Pogoda Temp. Widoczność Chmury Wiatr METAR/SPECI
23:30
V
24 °C 10 km+ - 110°   110° 6 kt METAR LFCK 212130Z AUTO 11006KT CAVOK 24/18 Q1016
23:00
V
24 °C 10 km+ - 120°   120° 12 kt METAR LFCK 212100Z AUTO 12012KT CAVOK 24/18 Q1016 NOSIG
22:30
V
24 °C 10 km+ - 150°   150° 8 kt METAR LFCK 212030Z AUTO 15008KT CAVOK 24/18 Q1017 NOSIG
22:00
V
25 °C 10 km+ - 120°   120° 10 kt METAR LFCK 212000Z AUTO 12010KT CAVOK 25/18 Q1017 NOSIG
21:30
V
26 °C 10 km+ - 130°   130° 11 kt METAR LFCK 211930Z AUTO 13011KT CAVOK 26/18 Q1017 NOSIG
21:00
V
27 °C 10 km+ - 130°   130° 11 kt METAR LFCK 211900Z AUTO 13011KT CAVOK 27/18 Q1017 NOSIG
20:30
V
28 °C 10 km+ - 120°   120° 12 kt METAR LFCK 211830Z AUTO 12012KT CAVOK 28/18 Q1017 NOSIG
20:00
V
28 °C 10 km+ - 120°   120° 12 kt METAR LFCK 211800Z AUTO 12012KT CAVOK 28/18 Q1016 NOSIG
19:30
V
29 °C 10 km+ - 130°   130° 13 kt METAR LFCK 211730Z AUTO 13013KT CAVOK 29/18 Q1016 NOSIG
19:00
V
30 °C 10 km+ - 120°   120° 11 kt METAR LFCK 211700Z AUTO 12011KT CAVOK 30/18 Q1016 NOSIG
18:30
V
31 °C 10 km+ - 110°   110° 14 kt METAR LFCK 211630Z AUTO 11014KT CAVOK 31/17 Q1017 NOSIG
18:00
V
31 °C 10 km+ - 110°   110° 15 kt METAR LFCK 211600Z AUTO 11015KT CAVOK 31/17 Q1016 NOSIG
17:30
V
31 °C 10 km+ - 110°   110° 14 kt METAR LFCK 211530Z AUTO 11014KT CAVOK 31/17 Q1017 NOSIG
17:00
V
33 °C 10 km+ - 110°   110° 13 kt METAR LFCK 211500Z AUTO 11013KT CAVOK 33/17 Q1017 NOSIG
16:30
V
33 °C 10 km+ - 120°   120° 13 kt METAR LFCK 211430Z AUTO 12013KT CAVOK 33/16 Q1017 NOSIG
16:00
V
33 °C 10 km+ - 120°   120° 12 kt METAR LFCK 211400Z AUTO 12012KT 090V150 CAVOK 33/15 Q1018 NOSIG
15:30
V
33 °C 10 km+ - 130°   130° 11 kt METAR LFCK 211330Z AUTO 13011KT CAVOK 33/16 Q1018 NOSIG
15:00
V
33 °C 10 km+ - 130°   130° 11 kt METAR LFCK 211300Z AUTO 13011KT 110V170 CAVOK 33/16 Q1018 NOSIG
14:30
V
32 °C 10 km+ - 110°   110° 11 kt METAR LFCK 211230Z AUTO 11011KT CAVOK 32/15 Q1018 NOSIG
14:00
V
32 °C 10 km+ - 120°   120° 10 kt METAR LFCK 211200Z AUTO 12010KT CAVOK 32/14 Q1018 NOSIG
13:30
V
32 °C 10 km+ - 120°   120° 11 kt METAR LFCK 211130Z AUTO 12011KT 090V160 CAVOK 32/16 Q1019 NOSIG
13:00
V
31 °C 10 km+ - 120°   120° 13 kt METAR LFCK 211100Z AUTO 12013KT CAVOK 31/15 Q1019 NOSIG
12:30
V
30 °C 10 km+ - 130°   130° 13 kt METAR LFCK 211030Z AUTO 13013KT CAVOK 30/15 Q1019 NOSIG
12:00
V
29 °C 10 km+ - 130°   130° 12 kt METAR LFCK 211000Z AUTO 13012KT CAVOK 29/14 Q1019 NOSIG
11:30
V
29 °C 10 km+ - 120°   120° 12 kt METAR LFCK 210930Z AUTO 12012KT CAVOK 29/14 Q1020 NOSIG
11:00
V
28 °C 10 km+ - 120°   120° 10 kt METAR LFCK 210900Z AUTO 12010KT 080V150 CAVOK 28/13 Q1020 NOSIG
10:30
V
27 °C 10 km+ - 110°   110° 11 kt METAR LFCK 210830Z AUTO 11011KT 080V140 CAVOK 27/13 Q1020 NOSIG
10:00
V
26 °C 10 km+ - 110°   110° 12 kt METAR LFCK 210800Z AUTO 11012KT CAVOK 26/12 Q1020 NOSIG
09:30
V
25 °C 10 km+ - 100°   100° 10 kt METAR LFCK 210730Z AUTO 10010KT 070V130 CAVOK 25/12 Q1021 NOSIG
09:00
V
23 °C 10 km+ - 100°   100° 12 kt METAR LFCK 210700Z AUTO 10012KT CAVOK 23/13 Q1021 NOSIG
Starsze dane

Pobierz naszą aplikację

Łatwy dostęp do całej pogody lotniczej na telefonie komórkowym i tablecie.
Z wieloma funkcjami niedostępnymi na stronie internetowej, takimi jak wsparcie offline i osobista lista lotnisk.

My i osoby trzecie śledzimy twoje zachowanie w internecie na naszej stronie za pomocą plików cookie. Jeśli kontynuujesz, zakładamy, że zgadzasz się z naszą polityką plików cookie. Dowiedz się więcej